sat.trackr.live / text

‹ back to catalog

YAOGAN-30 02B

NORAD 42946 · 2017-058B

PAYLOAD ACTIVE UNKNOWN

§ Identity

Operator
Country
PRC
Launch date
2017-09-29
Launch site
XICLF
Launch vehicle
Mass (kg)
RCS (m²)

External: N2YO · Heavens-Above · Gunter

§ Orbital elements

Epoch: 2026-09-20T04:30:45.480096Z

Period
95.80 min
Inclination
34.9969°
Eccentricity
0.0001287
Mean motion
15.03203143 rev/d
Perigee alt
556.1 km
Apogee alt
557.9 km
Semi-major
6,935.2 km
B*
1.3445e-4
RAAN
170.8349°
Arg perigee
48.2226°
Mean anomaly
311.8592°
Rev number
49,016

§ Raw data

YAOGAN-30 02B1 42946U 17058B   26263.18802639  .00001826  00000+0  13445-3 0  99982 42946  34.9969 170.8349 0001287  48.2226 311.8592 15.03203143490162

JSON: /api/v1/satellites/42946 · /tle

For live sub-satellite position, see the globe view (requires WebGL).

§ Visibility from observer

Set your observer location to see the next 7 days of passes ≥ 10°. The values pass through the URL so the page stays shareable.

No JS? Fill the form by hand. The geolocation button needs JavaScript.